Find Kosmos-2221

NORAD ID: 22236 Int'l Des: 1992-080 Owner: GRUR Country: RU operational
LEOCIRCULARPOLAR

Live-Position

3D-Globus wird geladen...

Über Kosmos-2221

Beschreibung wird geladen...

Nächste Überflüge

Passes for default location (London). Set your location on the main map for personalized predictions.

Höhenverlauf

Loading altitude history...

Zweizeiliger Elementsatz

1 22236U 92080A 26106.08686758 .00001047 00000-0 89962-4 0 9997
2 22236 82.5030 243.2481 0015543 69.5909 290.6981 14.96360995786384
Epoch: 16. Apr. 2026 • Age: 17 hours

Aktueller Status

Höhe 580.7 km
Geschwindigkeit 7.57 km/s
Subsatellitenpunkt 27.42°N, 68.4°W
Startdatum 24. Nov. 1992
Alter 33.3 years
Typ other

Technische Details

Klassifizierung Payload
Masse 1750.00 kg
Trockenmasse 1750.00 kg
Gesamtmasse 1750.00 kg
Länge 3.20 m
Durchmesser 1.30 m
Spannweite 13.10 m
Form Cyl + Ant
Hersteller YUZHUA
Bus-Typ Tselina-D
Phasenstatus In Orbit
Besitzer/Staat GRUR/RU

Most Searched